Flag for Turkey Weather past 2 weeks in Gelibolu, Turkey

Now
66 °F

Clear.


Feels Like: 66 °F
Forecast: 67 / 90 °F
Wind: 7 mph from East

Location: Canakkale Airport

Current Time: Aug 28, 2015 at 4:08:03 AM

Latest Report: Aug 28, 2015 at 2:50 AM


Visibility: 10 mi

Pressure: 30.07 "Hg

Humidity: 78%

Dew point: 59 °F

Location of GeliboluLocation

Historic Weather in Gelibolu — Graph

°F

Gelibolu temperature yesterday

Maximum temperature yesterday: 86 °F (at 2:50 PM)
Minimum temperature yesterday: 68 °F (at 1:50 AM)
Average temperature yesterday: 76 °F

Past Weeks' High & Low Weather Summary

 TemperatureHumidityPressure
High95 °F (Aug 16, 1:50 PM)88% (Aug 18, 1:50 AM)30.07 "Hg (Aug 18, 1:50 AM)
Low64 °F (Aug 24, 3:50 AM)26% (Aug 16, 2:50 PM)29.74 "Hg (Aug 15, 4:50 PM)
Average79 °F62%29.88 "Hg
* Reported Aug 13 2:50 AM — Aug 28 2:50 AM, Gelibolu, Weather by CustomWeather, © 2015

Note: Actual official high and low records may vary slightly from our data, if they occured in-between our weather recording intervals... More about our weather records

Advertising

Gelibolu weather history for previous 24 hours

 ConditionsComfort  
Time TempWeatherWind HumidityBarometerVisibility
2:50 AM
Fri, Aug 28
66 °FClear.7 mph78%30.07 "Hg10 mi
1:50 AM68 °FClear.5 mph73%30.07 "Hg10 mi
12:50 AM70 °FPassing clouds.9 mph69%30.07 "HgN/A
11:50 PM
Thu, Aug 27
70 °FClear.8 mph60%30.07 "Hg10 mi
10:50 PM70 °FClear.6 mph60%30.07 "Hg10 mi
9:50 PM75 °FClear.14 mph54%30.07 "Hg10 mi
8:50 PM77 °FSunny.17 mph51%30.04 "Hg10 mi
7:50 PM79 °FSunny.21 mph45%30.01 "Hg10 mi
6:50 PM82 °FSunny.20 mph40%30.01 "Hg10 mi
5:50 PM86 °FSunny.23 mph35%30.01 "Hg10 mi
4:50 PM86 °FSunny.26 mph38%30.01 "Hg10 mi
3:50 PM86 °FPassing clouds.23 mph40%30.01 "HgN/A
2:50 PM86 °FPassing clouds.22 mph43%30.01 "HgN/A
1:50 PM84 °FPassing clouds.21 mph51%30.04 "HgN/A
12:50 PM82 °FPassing clouds.20 mph55%30.04 "HgN/A
11:50 AM82 °FPassing clouds.21 mph55%30.04 "HgN/A
10:50 AM79 °FPassing clouds.18 mph58%30.04 "HgN/A
9:50 AM77 °FPassing clouds.18 mph61%30.04 "HgN/A
8:50 AM73 °FPassing clouds.14 mph65%30.04 "HgN/A
7:50 AM70 °FPassing clouds.9 mph73%30.04 "HgN/A
6:50 AM68 °FPassing clouds.10 mph78%30.01 "HgN/A
5:50 AM70 °FClear.13 mph78%30.01 "Hg10 mi
4:50 AM72 °FClear.13 mph78%30.01 "Hg10 mi
Weather by CustomWeather, © 2015

See weather overviewHow to use our weather pages